DIAMANT B-P4 DEB, 7655

Orbit data source: Space-Track

DIAMANT B-P4 DEB, 7655 is space debris in LEO originally from a launch on Thu, 06 Feb 1975 UTC launched from the French Guiana (FRGUI). Debris objects in space refer to the collection of defunct objects orbiting the Earth. Examples of debris include non-operational satellites, rocket bodies, and fragments generated from explosions, collisions, or faulty payload assembly.

Loading next visibility...
Identifier
7655, 1975-010D
Orbit
LEO
Country
Flag of FRFR
Related business
Manufacturer
Unknown
Mission
Spacecraft
Bus & Motor
Unknown
Mass
Unknown
Launch date (UTC)
1975-02-06 (51 years ago)
Launch vehicle
Unknown
Launch site
French Guiana (FRGUI)
Object type
Payload
Rocket body
Debris
Shape & HBR
Unknown shape, 0.1 m
Radar Cross Section
Small (<0.1 m²)

Expand to show TLE details & history
Last TLE update: 22 hours ago

TLE from 22 hours ago
0 DIAMANT B-P4 DEB
1  7655U 75010D   25312.48448274  .00000484  00000-0  40909-3 0  9991
2  7655  49.8034  35.0306 0179211 197.6313 161.8311 13.94741440577491
Epoch: 2025-11-08T11:37Z
TLE epoch observation values (Epoch: 2025-11-08T11:37:39.308Z)
Latitude
0.00001°
Longitude
172.70339°
Altitude
1,036.913 km
Speed
7.272 km/s
True Right ascension
02h 20m 07s
True Declination
0° 00' 00"
Sunlit
Object was in full shadow at epoch
Visualization orbit readout
Latitude
Unknown
Longitude
Unknown
Altitude
Unknown
Speed
Unknown
Apparent Right ascension
Unknown
Apparent Declination
Unknown
Sunlit
N/A
Visualization observer readout
Local Sidereal Time
05:52:17
Azimuth
Unknown
Elevation
Unknown
Doppler factor
Unknown
Orbital elements
Apogee altitude
1,043.483 km
Perigee altitude
782.159 km
Semi-major axis
7,290.958 km
Eccentricity
0.01792
Inclination
49.8034°
RAAN
35.0306°
Arg. of periapsis
197.6313°
True anomaly
162.45809°
Mean anomaly
161.8311°
Eccentric anomaly
162.14591°
Mean motion
3.48631 °/min
Orbital period
103.26 mins
BSTAR
0.00040909
Loading maneuver chart data...
Computing Atmospheric mass density...
Loading historical data...
Loading historical data...
Loading historical data...
Loading historical data...
Loading historical data...
Loading historical data...
Loading historical data...
Other satellites on launch #10 in the year 1975 (1975-02-06 UTC)

Documentation

Showing up to 5 results
|